カタログに戻る

STARLINK-35900

運用中通信VLEO
NORAD 66886·PAYLOAD·🇺🇸 United States

打ち上げ Dec 4, 2025 から Vandenberg Space Force Base

Loading…

次のパス (今後24時間)

TLE

最新Source: CelesTrak SupGP

元期: Sep 14, 2026, 21:21 UTC

1 66886C 25283J   26257.89006944  .00038914  00000+0  11495-2 0  2579
2 66886  53.1586 221.8161 0001408  91.4587 190.0165 15.34376514    14

AllMySatでSTARLINK-35900をリアルタイム追跡

Download on the App Store